Location: ???????
(55.4362°N, 38.1183°E)
Time: 16:39:44
(UTC+00:00)

USA 229 - Pass Details

Date: 17 June 2021
Orbit: 956 x 1256 km, 63.5° (Epoch: 25 July)

Event Time Altitude Azimuth Distance (km) Brightness Sun altitude
Exits shadow 22:15:12 13° 184° (S) 2,529 5.0 -10.5°
Maximum altitude 22:20:23 39° 121° (ESE) 1,514 4.4 -10.4°
Drops below altitude 10° 22:26:38 10° 56° (NE) 2,934 6.7 -10.2°
Sets 22:29:34 0° 49° (NE) 3,942 7.7 -10.1°
